Location: Aldenham
(51.6667°N, 0.3500°W)
Time: 15:16:04
(UTC+00:00)

Transit 2A Rocket - Pass Details

Date: 21 February 2026
Orbit: 583 x 900 km, 66.7° (Epoch: 10 March)

Event Time Altitude Azimuth Distance (km) Brightness Sun altitude
Rises 18:12:35 0° 273° (W) 3,520 10.6 -7.7°
Reaches altitude 10° 18:15:41 10° 288° (WNW) 2,569 8.9 -8.2°
Maximum altitude 18:20:22 23° 339° (NNW) 1,779 7.1 -8.9°
Drops below altitude 10° 18:24:54 10° 31° (NNE) 2,477 7.3 -9.6°
Enters shadow 18:27:00 - 42° (NE) 3,100 7.7 -10.0°
